| time (UTC) | temp F | wind direction | speed MPH | gust MPH | rain 1hr in | rain 24hr in | rain mn in | humidity % | barometer mb |
| 20260905022644 | 77 | 305 | 0.0 | 0.0 | 0.00 | 0.21 | 0.13 | 87 | 1013.1 |
| 20260905022132 | 77 | 305 | 0.0 | 0.0 | 0.00 | 0.21 | 0.13 | 87 | 1013.1 |
| 20260905021641 | 77 | 305 | 0.0 | 0.0 | 0.00 | 0.21 | 0.13 | 87 | 1013.2 |
| 20260905021130 | 78 | 305 | 0.0 | 0.0 | 0.00 | 0.21 | 0.13 | 87 | 1013.1 |
| 20260905020619 | 77 | 305 | 0.0 | 0.0 | 0.00 | 0.21 | 0.13 | 87 | 1013.1 |
| 20260905020144 | 77 | 305 | 0.0 | 0.0 | 0.00 | 0.21 | 0.13 | 87 | 1013.1 |
| 20260905015652 | 77 | 289 | 0.0 | 0.0 | 0.00 | 0.21 | 0.13 | 86 | 1013.1 |
| 20260905015141 | 78 | 289 | 0.0 | 0.0 | 0.00 | 0.21 | 0.13 | 86 | 1013.1 |
| 20260905014628 | 78 | 289 | 0.0 | 0.0 | 0.00 | 0.21 | 0.13 | 85 | 1013.0 |
| 20260905014117 | 78 | 289 | 0.0 | 0.0 | 0.00 | 0.21 | 0.13 | 84 | 1012.9 |
| 20260905013645 | 79 | 289 | 0.0 | 0.0 | 0.00 | 0.21 | 0.13 | 85 | 1012.8 |
| 20260905013114 | 79 | 289 | 0.0 | 0.0 | 0.00 | 0.21 | 0.13 | 85 | 1012.9 |
| 20260905012623 | 78 | 289 | 0.0 | 0.0 | 0.00 | 0.21 | 0.13 | 85 | 1012.7 |
| 20260905012132 | 78 | 289 | 0.0 | 0.0 | 0.00 | 0.21 | 0.13 | 86 | 1012.6 |
| 20260905011621 | 78 | 289 | 0.0 | 0.0 | 0.00 | 0.21 | 0.13 | 85 | 1012.5 |
| 20260905011130 | 79 | 289 | 0.0 | 0.0 | 0.00 | 0.21 | 0.13 | 85 | 1012.5 |
| 20260905010619 | 79 | 289 | 0.0 | 0.0 | 0.00 | 0.21 | 0.13 | 84 | 1012.5 |
| 20260905010128 | 79 | 305 | 0.0 | 0.0 | 0.00 | 0.21 | 0.13 | 84 | 1012.5 |
| 20260905005617 | 79 | 318 | 0.0 | 0.0 | 0.00 | 0.21 | 0.13 | 84 | 1012.4 |
| 20260905005127 | 79 | 299 | 0.0 | 0.0 | 0.00 | 0.21 | 0.13 | 84 | 1012.5 |
| 20260905004616 | 79 | 321 | 0.0 | 0.0 | 0.00 | 0.21 | 0.13 | 84 | 1012.6 |
| 20260905004125 | 79 | 321 | 0.0 | 0.0 | 0.00 | 0.21 | 0.13 | 83 | 1012.5 |
| 20260905003614 | 79 | 321 | 0.0 | 0.0 | 0.00 | 0.21 | 0.13 | 83 | 1012.6 |
| 20260905003120 | 79 | 321 | 0.0 | 0.0 | 0.00 | 0.21 | 0.13 | 83 | 1012.5 |
| 20260905002649 | 79 | 321 | 0.0 | 0.0 | 0.00 | 0.21 | 0.13 | 83 | 1012.5 |
| 20260905002137 | 79 | 321 | 0.0 | 0.0 | 0.00 | 0.21 | 0.13 | 83 | 1012.5 |
| 20260905001625 | 79 | 321 | 0.0 | 0.0 | 0.00 | 0.21 | 0.13 | 83 | 1012.5 |
| 20260905001115 | 80 | 321 | 0.0 | 0.0 | 0.00 | 0.21 | 0.13 | 82 | 1012.5 |
| 20260905000642 | 79 | 321 | 0.0 | 0.0 | 0.00 | 0.21 | 0.13 | 83 | 1012.4 |
| 20260905000131 | 79 | 321 | 0.0 | 0.0 | 0.00 | 0.21 | 0.13 | 83 | 1012.5 |
| 20260904235641 | 79 | 321 | 0.0 | 0.0 | 0.00 | 0.21 | 0.13 | 84 | 1012.4 |
| 20260904235128 | 79 | 321 | 0.0 | 0.0 | 0.00 | 0.21 | 0.13 | 83 | 1012.4 |
| 20260904234618 | 79 | 321 | 0.0 | 0.0 | 0.00 | 0.21 | 0.13 | 83 | 1012.4 |
| 20260904234127 | 79 | 321 | 0.0 | 0.0 | 0.00 | 0.21 | 0.13 | 82 | 1012.4 |
| 20260904233616 | 80 | 321 | 0.0 | 0.0 | 0.00 | 0.21 | 0.13 | 83 | 1012.4 |
| 20260904233144 | 80 | 321 | 0.0 | 0.0 | 0.00 | 0.21 | 0.13 | 82 | 1012.6 |
| 20260904232628 | 80 | 321 | 0.0 | 0.0 | 0.00 | 0.21 | 0.13 | 82 | 1012.7 |
| 20260904232117 | 80 | 321 | 0.0 | 0.0 | 0.00 | 0.21 | 0.13 | 81 | 1012.6 |
| 20260904231626 | 81 | 321 | 0.0 | 0.0 | 0.00 | 0.21 | 0.13 | 81 | 1012.6 |
| 20260904231136 | 80 | 321 | 0.0 | 0.0 | 0.00 | 0.21 | 0.13 | 81 | 1012.6 |
| 20260904230644 | 80 | 321 | 0.0 | 0.0 | 0.00 | 0.21 | 0.13 | 80 | 1012.8 |
| 20260904230152 | 81 | 321 | 0.0 | 0.0 | 0.00 | 0.21 | 0.13 | 80 | 1012.7 |
| 20260904225620 | 81 | 321 | 0.0 | 0.0 | 0.00 | 0.21 | 0.13 | 79 | 1012.7 |
| 20260904225129 | 81 | 321 | 0.0 | 0.0 | 0.00 | 0.21 | 0.13 | 78 | 1012.6 |
| 20260904224617 | 82 | 321 | 0.0 | 0.0 | 0.00 | 0.21 | 0.13 | 77 | 1012.5 |
| 20260904224126 | 82 | 321 | 0.0 | 2.0 | 0.00 | 0.21 | 0.13 | 77 | 1012.5 |
| 20260904223615 | 83 | 321 | 0.0 | 2.0 | 0.00 | 0.21 | 0.13 | 75 | 1012.4 |
| 20260904223124 | 83 | 295 | 0.0 | 0.0 | 0.00 | 0.21 | 0.13 | 76 | 1012.4 |
| 20260904222613 | 83 | 297 | 0.0 | 2.0 | 0.00 | 0.21 | 0.13 | 76 | 1012.4 |
| 20260904222121 | 83 | 297 | 0.0 | 2.0 | 0.00 | 0.21 | 0.13 | 75 | 1012.7 |
| 20260904221630 | 83 | 305 | 0.0 | 0.0 | 0.00 | 0.21 | 0.13 | 76 | 1012.7 |
| 20260904221119 | 83 | 305 | 0.0 | 0.0 | 0.00 | 0.21 | 0.13 | 74 | 1012.9 |
| 20260904220629 | 84 | 305 | 0.0 | 0.0 | 0.00 | 0.21 | 0.13 | 75 | 1012.9 |
| 20260904220118 | 83 | 305 | 0.0 | 0.0 | 0.00 | 0.21 | 0.13 | 74 | 1013.0 |
| 20260904215623 | 83 | 305 | 0.0 | 0.0 | 0.00 | 0.21 | 0.13 | 74 | 1013.2 |
| 20260904215132 | 83 | 305 | 0.0 | 0.0 | 0.00 | 0.21 | 0.13 | 74 | 1013.1 |
| 20260904214620 | 83 | 305 | 0.0 | 0.0 | 0.00 | 0.21 | 0.13 | 74 | 1013.1 |
| 20260904214130 | 83 | 305 | 0.0 | 0.0 | 0.00 | 0.21 | 0.13 | 74 | 1013.2 |
| 20260904213618 | 83 | 305 | 0.0 | 0.0 | 0.00 | 0.21 | 0.13 | 72 | 1013.2 |
| 20260904213128 | 84 | 309 | 0.0 | 0.0 | 0.00 | 0.21 | 0.13 | 71 | 1013.2 |
| 20260904212617 | 84 | 309 | 0.0 | 0.0 | 0.00 | 0.21 | 0.13 | 71 | 1013.3 |
| 20260904212126 | 84 | 319 | 0.0 | 2.0 | 0.00 | 0.21 | 0.13 | 72 | 1013.4 |
| 20260904211615 | 84 | 305 | 0.0 | 2.0 | 0.00 | 0.21 | 0.13 | 71 | 1013.3 |
| 20260904211124 | 84 | 305 | 0.0 | 0.0 | 0.00 | 0.21 | 0.13 | 71 | 1013.5 |
| 20260904210634 | 84 | 319 | 0.0 | 3.0 | 0.00 | 0.21 | 0.13 | 70 | 1013.4 |
| 20260904210123 | 85 | 291 | 0.0 | 3.0 | 0.00 | 0.21 | 0.13 | 69 | 1013.3 |
| 20260904205633 | 85 | 307 | 0.0 | 3.0 | 0.00 | 0.21 | 0.13 | 69 | 1013.7 |
| 20260904205121 | 84 | 337 | 0.0 | 0.0 | 0.00 | 0.21 | 0.13 | 68 | 1013.6 |
| 20260904204630 | 85 | 352 | 0.0 | 3.0 | 0.00 | 0.21 | 0.13 | 67 | 1013.6 |
| 20260904204120 | 85 | 308 | 0.0 | 3.0 | 0.00 | 0.21 | 0.13 | 67 | 1013.7 |
| 20260904203629 | 84 | 311 | 0.0 | 1.0 | 0.00 | 0.21 | 0.13 | 70 | 1013.8 |
| 20260904203119 | 85 | 331 | 0.0 | 1.0 | 0.00 | 0.21 | 0.13 | 66 | 1013.9 |
| 20260904202628 | 85 | 293 | 0.0 | 1.0 | 0.00 | 0.21 | 0.13 | 66 | 1013.8 |
| 20260904202118 | 85 | 20 | 0.0 | 2.0 | 0.00 | 0.21 | 0.13 | 65 | 1013.8 |
| 20260904201626 | 86 | 40 | 0.0 | 2.0 | 0.00 | 0.21 | 0.13 | 64 | 1013.8 |
| 20260904201115 | 86 | 353 | 0.0 | 5.0 | 0.00 | 0.21 | 0.13 | 63 | 1013.8 |
| 20260904200640 | 87 | 314 | 1.0 | 5.0 | 0.00 | 0.21 | 0.13 | 64 | 1013.9 |
| 20260904200148 | 87 | 63 | 0.0 | 4.0 | 0.00 | 0.21 | 0.13 | 65 | 1013.9 |
| 20260904195637 | 87 | 7 | 1.0 | 4.0 | 0.00 | 0.21 | 0.13 | 63 | 1013.8 |
| 20260904195126 | 87 | 48 | 0.0 | 5.0 | 0.00 | 0.21 | 0.13 | 65 | 1013.7 |
| 20260904194614 | 88 | 360 | 0.0 | 5.0 | 0.00 | 0.21 | 0.13 | 63 | 1013.7 |
| 20260904194143 | 88 | 3 | 1.0 | 4.0 | 0.00 | 0.21 | 0.13 | 61 | 1013.6 |
| 20260904193630 | 87 | 315 | 2.0 | 4.0 | 0.00 | 0.21 | 0.13 | 60 | 1013.5 |
| 20260904193119 | 88 | 8 | 0.0 | 7.0 | 0.00 | 0.21 | 0.13 | 62 | 1013.5 |
| 20260904192627 | 88 | 359 | 1.0 | 7.0 | 0.00 | 0.21 | 0.13 | 62 | 1013.7 |
| 20260904192116 | 88 | 357 | 1.0 | 4.0 | 0.00 | 0.21 | 0.13 | 62 | 1013.7 |
| 20260904191625 | 87 | 314 | 1.0 | 4.0 | 0.00 | 0.21 | 0.13 | 63 | 1013.8 |
| 20260904191113 | 88 | 19 | 1.0 | 7.0 | 0.00 | 0.21 | 0.13 | 61 | 1013.8 |
| 20260904190622 | 88 | 359 | 1.0 | 7.0 | 0.00 | 0.21 | 0.13 | 63 | 1013.9 |
| 20260904190131 | 88 | 9 | 1.0 | 4.0 | 0.00 | 0.21 | 0.13 | 62 | 1014.1 |
| 20260904185621 | 89 | 14 | 1.0 | 4.0 | 0.00 | 0.21 | 0.13 | 61 | 1014.2 |
| 20260904185125 | 89 | 18 | 0.0 | 2.0 | 0.00 | 0.21 | 0.13 | 61 | 1014.2 |
| 20260904184615 | 89 | 1 | 0.0 | 7.0 | 0.00 | 0.21 | 0.13 | 59 | 1014.2 |
| 20260904184124 | 88 | 299 | 2.0 | 7.0 | 0.00 | 0.21 | 0.13 | 60 | 1014.4 |
| 20260904183614 | 89 | 143 | 1.0 | 10.0 | 0.00 | 0.21 | 0.13 | 63 | 1014.3 |
| 20260904183121 | 88 | 339 | 2.0 | 10.0 | 0.00 | 0.21 | 0.13 | 60 | 1014.4 |
| 20260904182631 | 88 | 304 | 1.0 | 3.0 | 0.00 | 0.21 | 0.13 | 60 | 1014.4 |
| 20260904182121 | 88 | 344 | 0.0 | 5.0 | 0.00 | 0.21 | 0.13 | 61 | 1014.4 |
| 20260904181629 | 88 | 17 | 0.0 | 5.0 | 0.00 | 0.21 | 0.13 | 60 | 1014.4 |
| 20260904181119 | 88 | 347 | 0.0 | 2.0 | 0.00 | 0.21 | 0.13 | 60 | 1014.3 |
| 20260904180628 | 89 | 13 | 0.0 | 7.0 | 0.00 | 0.21 | 0.13 | 60 | 1014.3 |
| 20260904180137 | 89 | 320 | 1.0 | 9.0 | 0.00 | 0.21 | 0.13 | 59 | 1014.4 |
| 20260904175624 | 88 | 3 | 1.0 | 5.0 | 0.00 | 0.21 | 0.13 | 61 | 1014.4 |
| 20260904175152 | 89 | 296 | 0.0 | 5.0 | 0.00 | 0.21 | 0.13 | 59 | 1014.3 |
| 20260904174620 | 89 | 10 | 0.0 | 2.0 | 0.00 | 0.21 | 0.13 | 60 | 1014.3 |
| 20260904174130 | 88 | 338 | 0.0 | 2.0 | 0.00 | 0.21 | 0.13 | 62 | 1014.3 |
| 20260904173619 | 88 | 341 | 0.0 | 2.0 | 0.00 | 0.21 | 0.13 | 61 | 1014.4 |
| 20260904173147 | 88 | 7 | 0.0 | 5.0 | 0.00 | 0.21 | 0.13 | 61 | 1014.4 |
| 20260904172615 | 87 | 319 | 1.0 | 5.0 | 0.00 | 0.21 | 0.13 | 61 | 1014.5 |
| 20260904172119 | 87 | 286 | 0.0 | 7.0 | 0.00 | 0.21 | 0.13 | 60 | 1014.6 |
| 20260904171628 | 88 | 313 | 1.0 | 8.0 | 0.00 | 0.21 | 0.13 | 60 | 1014.6 |
| 20260904171114 | 87 | 300 | 1.0 | 8.0 | 0.00 | 0.21 | 0.13 | 63 | 1014.6 |
| 20260904170623 | 87 | 280 | 0.0 | 5.0 | 0.00 | 0.21 | 0.13 | 66 | 1014.7 |
| 20260904170132 | 87 | 62 | 1.0 | 5.0 | 0.00 | 0.21 | 0.13 | 63 | 1014.7 |
| 20260904165621 | 86 | 322 | 1.0 | 4.0 | 0.00 | 0.26 | 0.13 | 64 | 1014.7 |
| 20260904165130 | 86 | 321 | 0.0 | 4.0 | 0.00 | 0.26 | 0.13 | 68 | 1014.8 |
| 20260904164618 | 86 | 322 | 1.0 | 9.0 | 0.00 | 0.26 | 0.13 | 66 | 1014.9 |
| 20260904164147 | 85 | 306 | 0.0 | 4.0 | 0.00 | 0.26 | 0.13 | 66 | 1015.0 |
| 20260904163613 | 85 | 9 | 1.0 | 4.0 | 0.00 | 0.26 | 0.13 | 66 | 1015.0 |
| 20260904163123 | 85 | 340 | 0.0 | 4.0 | 0.00 | 0.26 | 0.13 | 67 | 1015.1 |
| 20260904162633 | 86 | 28 | 1.0 | 10.0 | 0.00 | 0.26 | 0.13 | 65 | 1015.1 |
| 20260904162142 | 87 | 304 | 2.0 | 10.0 | 0.00 | 0.26 | 0.13 | 65 | 1015.2 |
| 20260904161629 | 87 | 315 | 1.0 | 5.0 | 0.00 | 0.26 | 0.13 | 65 | 1015.2 |
| 20260904161137 | 86 | 72 | 1.0 | 5.0 | 0.00 | 0.26 | 0.13 | 67 | 1015.2 |
| 20260904160626 | 85 | 324 | 1.0 | 6.0 | 0.00 | 0.26 | 0.13 | 68 | 1015.2 |
| 20260904160116 | 84 | 322 | 2.0 | 4.0 | 0.00 | 0.26 | 0.13 | 70 | 1015.3 |
| 20260904155619 | 83 | 351 | 0.0 | 6.0 | 0.00 | 0.30 | 0.13 | 73 | 1015.1 |
| 20260904155128 | 83 | 13 | 1.0 | 6.0 | 0.00 | 0.30 | 0.13 | 69 | 1015.2 |
| 20260904154618 | 84 | 16 | 2.0 | 6.0 | 0.00 | 0.30 | 0.13 | 68 | 1015.3 |
| 20260904154125 | 84 | 284 | 1.0 | 4.0 | 0.00 | 0.30 | 0.13 | 72 | 1015.4 |
| 20260904153615 | 83 | 2 | 1.0 | 4.0 | 0.00 | 0.30 | 0.13 | 70 | 1015.4 |
| 20260904153144 | 83 | 351 | 2.0 | 7.0 | 0.00 | 0.30 | 0.13 | 68 | 1015.5 |
| 20260904152654 | 83 | 336 | 1.0 | 7.0 | 0.00 | 0.30 | 0.13 | 69 | 1015.6 |
| 20260904152141 | 83 | 345 | 1.0 | 5.0 | 0.00 | 0.30 | 0.13 | 69 | 1015.8 |
| 20260904151629 | 83 | 16 | 2.0 | 7.0 | 0.00 | 0.30 | 0.13 | 69 | 1015.7 |
| 20260904151117 | 83 | 336 | 1.0 | 7.0 | 0.00 | 0.30 | 0.13 | 70 | 1015.6 |
| 20260904150626 | 82 | 356 | 1.0 | 5.0 | 0.00 | 0.30 | 0.13 | 71 | 1015.5 |
| 20260904150114 | 83 | 322 | 2.0 | 7.0 | 0.00 | 0.30 | 0.13 | 68 | 1015.7 |
| 20260904145623 | 83 | 320 | 2.0 | 7.0 | 0.00 | 0.30 | 0.13 | 69 | 1015.6 |
| 20260904145132 | 83 | 271 | 2.0 | 7.0 | 0.00 | 0.30 | 0.13 | 70 | 1015.6 |
| 20260904144620 | 83 | 307 | 3.0 | 7.0 | 0.00 | 0.30 | 0.13 | 71 | 1015.6 |
| 20260904144129 | 82 | 305 | 0.0 | 5.0 | 0.00 | 0.30 | 0.13 | 73 | 1015.6 |
| 20260904143618 | 82 | 22 | 1.0 | 5.0 | 0.00 | 0.30 | 0.13 | 73 | 1015.7 |
| 20260904143121 | 81 | 7 | 2.0 | 5.0 | 0.00 | 0.30 | 0.13 | 76 | 1015.6 |
| 20260904142630 | 80 | 3 | 1.0 | 5.0 | 0.00 | 0.30 | 0.13 | 77 | 1015.6 |
| 20260904142119 | 79 | 10 | 1.0 | 5.0 | 0.00 | 0.30 | 0.13 | 79 | 1015.6 |
| 20260904141627 | 79 | 334 | 0.0 | 4.0 | 0.00 | 0.30 | 0.13 | 79 | 1015.5 |
| 20260904140623 | 77 | 342 | 1.0 | 4.0 | 0.00 | 0.30 | 0.13 | 80 | 1015.5 |
| 20260904140132 | 78 | 46 | 1.0 | 6.0 | 0.00 | 0.30 | 0.13 | 78 | 1015.5 |
| 20260904135621 | 79 | 322 | 1.0 | 6.0 | 0.00 | 0.30 | 0.13 | 79 | 1015.4 |
| 20260904135130 | 78 | 316 | 2.0 | 5.0 | 0.00 | 0.30 | 0.13 | 80 | 1015.4 |
| 20260904134618 | 79 | 15 | 0.0 | 5.0 | 0.00 | 0.30 | 0.13 | 79 | 1015.5 |
| 20260904134147 | 78 | 293 | 0.0 | 4.0 | 0.00 | 0.30 | 0.13 | 80 | 1015.8 |
| 20260904133615 | 78 | 295 | 1.0 | 4.0 | 0.00 | 0.30 | 0.13 | 79 | 1015.8 |
| 20260904133123 | 78 | 42 | 0.0 | 4.0 | 0.00 | 0.30 | 0.13 | 81 | 1015.7 |
| 20260904132632 | 77 | 1 | 0.0 | 8.0 | 0.00 | 0.30 | 0.13 | 83 | 1015.6 |
| 20260904132121 | 77 | 2 | 1.0 | 8.0 | 0.00 | 0.30 | 0.13 | 82 | 1015.6 |
| 20260904131631 | 77 | 36 | 0.0 | 3.0 | 0.00 | 0.30 | 0.13 | 83 | 1015.5 |
| 20260904131119 | 77 | 325 | 0.0 | 2.0 | 0.00 | 0.30 | 0.13 | 86 | 1015.6 |
| 20260904130629 | 76 | 49 | 0.0 | 1.0 | 0.00 | 0.30 | 0.13 | 87 | 1015.4 |
| 20260904130118 | 76 | 10 | 0.0 | 0.0 | 0.00 | 0.30 | 0.13 | 87 | 1015.4 |
| 20260904125627 | 76 | 315 | 0.0 | 0.0 | 0.00 | 0.30 | 0.13 | 88 | 1015.4 |
| 20260904125115 | 74 | 301 | 0.0 | 0.0 | 0.00 | 0.30 | 0.13 | 90 | 1015.5 |
| 20260904124621 | 74 | 165 | 0.0 | 0.0 | 0.00 | 0.30 | 0.13 | 90 | 1015.5 |
| 20260904124129 | 74 | 18 | 0.0 | 0.0 | 0.00 | 0.30 | 0.13 | 90 | 1015.5 |
| 20260904123618 | 74 | 8 | 0.0 | 3.0 | 0.00 | 0.30 | 0.13 | 89 | 1015.6 |
| 20260904123147 | 74 | 8 | 0.0 | 5.0 | 0.00 | 0.30 | 0.13 | 89 | 1015.6 |
| 20260904122615 | 74 | 311 | 2.0 | 5.0 | 0.00 | 0.30 | 0.13 | 91 | 1015.6 |
| 20260904122142 | 73 | 337 | 0.0 | 1.0 | 0.00 | 0.30 | 0.13 | 93 | 1015.6 |
| 20260904121630 | 72 | 324 | 0.0 | 0.0 | 0.00 | 0.30 | 0.13 | 93 | 1015.6 |
| 20260904121119 | 72 | 352 | 0.0 | 0.0 | 0.00 | 0.30 | 0.13 | 92 | 1015.5 |
| 20260904120648 | 72 | 305 | 0.0 | 3.0 | 0.00 | 0.30 | 0.13 | 93 | 1015.4 |
| 20260904120115 | 71 | 313 | 0.0 | 3.0 | 0.00 | 0.30 | 0.13 | 93 | 1015.6 |
| 20260904115625 | 71 | 292 | 1.0 | 4.0 | 0.00 | 0.30 | 0.13 | 93 | 1015.4 |
| 20260904115115 | 71 | 289 | 1.0 | 4.0 | 0.00 | 0.30 | 0.13 | 93 | 1015.4 |
| 20260904114622 | 71 | 275 | 0.0 | 2.0 | 0.00 | 0.30 | 0.13 | 93 | 1015.5 |
| 20260904114152 | 71 | 286 | 1.0 | 2.0 | 0.00 | 0.30 | 0.13 | 93 | 1015.5 |
| 20260904113620 | 71 | 301 | 0.0 | 2.0 | 0.00 | 0.30 | 0.13 | 93 | 1015.4 |
| 20260904113124 | 71 | 277 | 0.0 | 3.0 | 0.00 | 0.30 | 0.13 | 93 | 1015.5 |
| 20260904112653 | 70 | 287 | 1.0 | 3.0 | 0.00 | 0.30 | 0.13 | 93 | 1015.4 |
| 20260904112141 | 70 | 313 | 0.0 | 0.0 | 0.00 | 0.30 | 0.13 | 93 | 1015.4 |
| 20260904111629 | 70 | 315 | 0.0 | 0.0 | 0.00 | 0.30 | 0.13 | 93 | 1015.3 |
| 20260904111119 | 70 | 316 | 0.0 | 2.0 | 0.00 | 0.30 | 0.13 | 93 | 1015.3 |
| 20260904110628 | 70 | 315 | 0.0 | 2.0 | 0.00 | 0.30 | 0.13 | 93 | 1015.1 |
| 20260904110118 | 70 | 319 | 0.0 | 3.0 | 0.00 | 0.30 | 0.13 | 93 | 1015.2 |
| 20260904105646 | 70 | 295 | 2.0 | 3.0 | 0.00 | 0.30 | 0.13 | 93 | 1015.0 |
| 20260904105132 | 70 | 307 | 1.0 | 2.0 | 0.00 | 0.30 | 0.13 | 93 | 1014.9 |
| 20260904104623 | 70 | 322 | 0.0 | 2.0 | 0.00 | 0.30 | 0.13 | 93 | 1014.9 |
| 20260904104130 | 71 | 322 | 1.0 | 2.0 | 0.02 | 0.30 | 0.13 | 93 | 1015.1 |
| 20260904103620 | 71 | 311 | 0.0 | 0.0 | 0.03 | 0.30 | 0.13 | 93 | 1015.0 |
| 20260904103129 | 71 | 311 | 0.0 | 0.0 | 0.08 | 0.30 | 0.13 | 93 | 1015.0 |
| 20260904102618 | 71 | 311 | 0.0 | 4.0 | 0.08 | 0.30 | 0.13 | 93 | 1014.9 |
| 20260904102127 | 71 | 311 | 2.0 | 4.0 | 0.08 | 0.30 | 0.13 | 93 | 1014.7 |
| 20260904101616 | 71 | 309 | 0.0 | 0.0 | 0.08 | 0.30 | 0.13 | 93 | 1014.5 |
| 20260904101125 | 71 | 309 | 0.0 | 0.0 | 0.08 | 0.30 | 0.13 | 93 | 1014.4 |
| 20260904100628 | 71 | 309 | 0.0 | 0.0 | 0.08 | 0.30 | 0.13 | 93 | 1014.6 |
| 20260904100117 | 71 | 309 | 0.0 | 0.0 | 0.08 | 0.30 | 0.13 | 94 | 1014.6 |
| 20260904095626 | 70 | 309 | 0.0 | 0.0 | 0.08 | 0.30 | 0.13 | 94 | 1014.8 |
| 20260904095115 | 70 | 73 | 0.0 | 0.0 | 0.08 | 0.30 | 0.13 | 93 | 1014.7 |
| 20260904094645 | 70 | 74 | 0.0 | 2.0 | 0.07 | 0.29 | 0.12 | 93 | 1014.7 |
| 20260904094131 | 71 | 299 | 0.0 | 3.0 | 0.06 | 0.28 | 0.11 | 93 | 1014.8 |
| 20260904093621 | 71 | 18 | 1.0 | 3.0 | 0.04 | 0.26 | 0.09 | 93 | 1015.2 |
| 20260904093130 | 71 | 18 | 0.0 | 2.0 | 0.00 | 0.22 | 0.05 | 93 | 1015.1 |
| 20260904092619 | 71 | 324 | 0.0 | 2.0 | 0.00 | 0.22 | 0.05 | 94 | 1014.6 |
| 20260904092128 | 71 | 324 | 0.0 | 0.0 | 0.00 | 0.22 | 0.05 | 93 | 1014.3 |
| 20260904091617 | 71 | 349 | 0.0 | 0.0 | 0.00 | 0.22 | 0.05 | 94 | 1014.1 |
| 20260904091125 | 70 | 310 | 0.0 | 0.0 | 0.00 | 0.22 | 0.05 | 93 | 1014.1 |
| 20260904090615 | 71 | 311 | 0.0 | 0.0 | 0.00 | 0.22 | 0.05 | 93 | 1014.1 |
| 20260904090144 | 71 | 310 | 0.0 | 0.0 | 0.00 | 0.22 | 0.05 | 93 | 1014.3 |
| 20260904085630 | 71 | 310 | 0.0 | 0.0 | 0.00 | 0.22 | 0.05 | 93 | 1014.4 |
| 20260904085119 | 71 | 311 | 0.0 | 0.0 | 0.00 | 0.22 | 0.05 | 93 | 1014.4 |
| 20260904084628 | 71 | 310 | 0.0 | 0.0 | 0.00 | 0.22 | 0.05 | 93 | 1014.3 |
| 20260904084153 | 71 | 310 | 0.0 | 0.0 | 0.00 | 0.22 | 0.05 | 92 | 1014.3 |
| 20260904083622 | 71 | 310 | 0.0 | 0.0 | 0.00 | 0.22 | 0.05 | 92 | 1014.3 |
| 20260904083130 | 71 | 310 | 0.0 | 0.0 | 0.00 | 0.22 | 0.05 | 92 | 1014.5 |
| 20260904082620 | 71 | 311 | 0.0 | 0.0 | 0.00 | 0.22 | 0.05 | 93 | 1014.5 |
| 20260904082129 | 71 | 281 | 0.0 | 0.0 | 0.00 | 0.22 | 0.05 | 92 | 1014.4 |
| 20260904081619 | 71 | 258 | 0.0 | 0.0 | 0.00 | 0.22 | 0.05 | 92 | 1014.5 |
| 20260904081147 | 71 | 258 | 0.0 | 0.0 | 0.00 | 0.22 | 0.05 | 92 | 1014.5 |
| 20260904080615 | 71 | 264 | 0.0 | 3.0 | 0.00 | 0.22 | 0.05 | 92 | 1014.4 |
| 20260904080144 | 71 | 257 | 0.0 | 6.0 | 0.00 | 0.22 | 0.05 | 92 | 1014.6 |
| 20260904075632 | 71 | 222 | 1.0 | 6.0 | 0.00 | 0.22 | 0.05 | 92 | 1014.7 |
| 20260904075120 | 71 | 238 | 2.0 | 6.0 | 0.00 | 0.22 | 0.05 | 91 | 1014.7 |
| 20260904074629 | 71 | 212 | 2.0 | 3.0 | 0.00 | 0.22 | 0.05 | 92 | 1014.5 |
| 20260904074118 | 71 | 237 | 0.0 | 0.0 | 0.00 | 0.22 | 0.05 | 92 | 1014.7 |
| 20260904073627 | 71 | 231 | 0.0 | 0.0 | 0.00 | 0.22 | 0.05 | 92 | 1014.3 |
| 20260904073116 | 71 | 308 | 0.0 | 1.0 | 0.00 | 0.22 | 0.05 | 92 | 1014.3 |
| 20260904072625 | 71 | 308 | 0.0 | 2.0 | 0.00 | 0.22 | 0.05 | 92 | 1014.3 |
| 20260904072114 | 71 | 317 | 0.0 | 3.0 | 0.00 | 0.22 | 0.05 | 92 | 1014.4 |
| 20260904071623 | 71 | 313 | 1.0 | 3.0 | 0.00 | 0.22 | 0.05 | 92 | 1014.4 |
| 20260904071128 | 71 | 298 | 0.0 | 0.0 | 0.00 | 0.22 | 0.05 | 92 | 1014.3 |
| 20260904070617 | 71 | 291 | 0.0 | 0.0 | 0.00 | 0.22 | 0.05 | 91 | 1014.2 |
| 20260904070147 | 71 | 291 | 0.0 | 0.0 | 0.00 | 0.22 | 0.05 | 91 | 1014.2 |
| 20260904065615 | 71 | 291 | 0.0 | 0.0 | 0.00 | 0.22 | 0.05 | 91 | 1014.3 |
| 20260904065123 | 71 | 291 | 0.0 | 0.0 | 0.00 | 0.22 | 0.05 | 91 | 1014.2 |
| 20260904064633 | 71 | 291 | 0.0 | 0.0 | 0.00 | 0.22 | 0.05 | 91 | 1014.1 |
| 20260904064122 | 71 | 272 | 0.0 | 0.0 | 0.00 | 0.22 | 0.05 | 91 | 1014.0 |
| 20260904063632 | 71 | 307 | 0.0 | 0.0 | 0.00 | 0.22 | 0.05 | 91 | 1013.8 |
| 20260904063120 | 71 | 300 | 0.0 | 3.0 | 0.00 | 0.22 | 0.05 | 91 | 1013.7 |
| 20260904062650 | 71 | 304 | 1.0 | 3.0 | 0.00 | 0.22 | 0.05 | 90 | 1013.5 |
| 20260904062117 | 71 | 303 | 1.0 | 5.0 | 0.00 | 0.22 | 0.05 | 90 | 1013.7 |
| 20260904061625 | 71 | 299 | 1.0 | 5.0 | 0.00 | 0.22 | 0.05 | 90 | 1013.8 |
| 20260904061114 | 71 | 286 | 2.0 | 5.0 | 0.00 | 0.22 | 0.05 | 90 | 1013.9 |
| 20260904060624 | 71 | 320 | 3.0 | 5.0 | 0.00 | 0.22 | 0.05 | 90 | 1013.8 |
| 20260904060114 | 71 | 307 | 2.0 | 6.0 | 0.00 | 0.22 | 0.05 | 91 | 1014.0 |
| 20260904055642 | 71 | 285 | 2.0 | 5.0 | 0.00 | 0.22 | 0.05 | 91 | 1013.8 |
| 20260904055129 | 71 | 2 | 1.0 | 4.0 | 0.00 | 0.22 | 0.05 | 91 | 1013.9 |
| 20260904054619 | 71 | 322 | 1.0 | 4.0 | 0.00 | 0.22 | 0.05 | 91 | 1014.1 |
| 20260904054123 | 71 | 311 | 0.0 | 4.0 | 0.00 | 0.22 | 0.05 | 91 | 1014.2 |
| 20260904053634 | 71 | 26 | 1.0 | 4.0 | 0.00 | 0.22 | 0.05 | 91 | 1014.2 |
| 20260904053121 | 71 | 284 | 0.0 | 1.0 | 0.00 | 0.22 | 0.05 | 91 | 1014.5 |
| 20260904052650 | 71 | 313 | 0.0 | 2.0 | 0.00 | 0.22 | 0.05 | 91 | 1014.4 |
| 20260904052119 | 71 | 313 | 0.0 | 2.0 | 0.00 | 0.22 | 0.05 | 91 | 1014.1 |
| 20260904051647 | 72 | 342 | 0.0 | 3.0 | 0.01 | 0.22 | 0.05 | 90 | 1014.0 |
| 20260904051116 | 72 | 247 | 0.0 | 4.0 | 0.02 | 0.22 | 0.05 | 91 | 1014.1 |
| 20260904050626 | 72 | 307 | 2.0 | 5.0 | 0.04 | 0.22 | 0.05 | 90 | 1014.5 |
| 20260904050116 | 72 | 316 | 3.0 | 5.0 | 0.05 | 0.22 | 0.05 | 90 | 1014.7 |
| 20260904045624 | 72 | 308 | 2.0 | 4.0 | 0.05 | 0.22 | 0.05 | 90 | 1014.8 |
| 20260904045113 | 72 | 307 | 0.0 | 2.0 | 0.05 | 0.22 | 0.05 | 90 | 1014.4 |
| 20260904044623 | 72 | 309 | 0.0 | 2.0 | 0.05 | 0.22 | 0.05 | 89 | 1014.4 |
| 20260904044151 | 73 | 282 | 0.0 | 3.0 | 0.05 | 0.22 | 0.05 | 89 | 1014.5 |
| 20260904043618 | 73 | 258 | 1.0 | 6.0 | 0.05 | 0.22 | 0.05 | 89 | 1014.4 |
| 20260904043127 | 73 | 306 | 2.0 | 6.0 | 0.05 | 0.22 | 0.05 | 89 | 1014.8 |
| 20260904042617 | 73 | 324 | 1.0 | 3.0 | 0.05 | 0.22 | 0.05 | 89 | 1014.9 |
| 20260904042122 | 73 | 315 | 0.0 | 7.0 | 0.06 | 0.22 | 0.05 | 88 | 1015.2 |
| 20260904041631 | 73 | 310 | 1.0 | 10.0 | 0.05 | 0.21 | 0.04 | 87 | 1015.5 |
| 20260904041119 | 73 | 8 | 2.0 | 10.0 | 0.10 | 0.19 | 0.02 | 88 | 1016.0 |
| 20260904040628 | 73 | 344 | 2.0 | 8.0 | 0.09 | 0.18 | 0.01 | 88 | 1016.1 |
| 20260904040117 | 73 | 334 | 2.0 | 8.0 | 0.08 | 0.17 | 0.00 | 89 | 1015.9 |
| 20260904035625 | 73 | 359 | 2.0 | 7.0 | 0.08 | 0.17 | 0.17 | 90 | 1015.6 |
| 20260904035115 | 73 | 332 | 2.0 | 3.0 | 0.08 | 0.17 | 0.17 | 90 | 1015.3 |
| 20260904034624 | 73 | 359 | 0.0 | 0.0 | 0.08 | 0.17 | 0.17 | 90 | 1014.7 |
| 20260904034113 | 73 | 297 | 0.0 | 0.0 | 0.08 | 0.17 | 0.17 | 90 | 1014.4 |
| 20260904033622 | 73 | 337 | 0.0 | 0.0 | 0.08 | 0.17 | 0.17 | 89 | 1014.5 |
| 20260904033131 | 73 | 337 | 0.0 | 0.0 | 0.08 | 0.17 | 0.17 | 88 | 1014.5 |
| 20260904032621 | 74 | 337 | 0.0 | 0.0 | 0.08 | 0.17 | 0.17 | 85 | 1014.9 |
| 20260904032131 | 75 | 337 | 0.0 | 7.0 | 0.07 | 0.16 | 0.16 | 84 | 1015.1 |
| 20260904031620 | 77 | 92 | 1.0 | 8.0 | 0.07 | 0.16 | 0.16 | 80 | 1015.4 |
| 20260904031128 | 78 | 101 | 3.0 | 11.0 | 0.00 | 0.09 | 0.09 | 76 | 1015.6 |
| 20260904030617 | 80 | 277 | 4.0 | 15.0 | 0.00 | 0.09 | 0.09 | 77 | 1015.8 |
| 20260904030127 | 81 | 337 | 6.0 | 16.0 | 0.00 | 0.09 | 0.09 | 81 | 1016.1 |
| 20260904025635 | 81 | 291 | 4.0 | 7.0 | 0.00 | 0.09 | 0.09 | 85 | 1016.0 |
| 20260904025123 | 81 | 312 | 3.0 | 6.0 | 0.00 | 0.09 | 0.09 | 85 | 1015.1 |
| 20260904024633 | 81 | 316 | 2.0 | 4.0 | 0.00 | 0.09 | 0.09 | 85 | 1014.9 |
| 20260904024138 | 81 | 284 | 0.0 | 3.0 | 0.00 | 0.09 | 0.09 | 85 | 1015.0 |
| 20260904023625 | 80 | 300 | 0.0 | 4.0 | 0.00 | 0.09 | 0.09 | 85 | 1014.8 |
| 20260904023115 | 80 | 311 | 1.0 | 7.0 | 0.00 | 0.09 | 0.09 | 85 | 1014.9 |